Total_Precipitation_Accumulation
0.71 0.88 0.90 1.01 0.78 0.73 0.66 0.57 0.49 0.47 0.39 0.30 0.27 0.26 0.31 0.40 0.46 0.53 0.54 0.49 0.47 0.62 0.88 0.95 0.86 0.81 0.79 0.74 0.69 0.65 0.62 0.62 0.57 0.51 0.42 0.35 0.32 0.32 0.33 0.35 0.35 0.34 0.33
0.91 1.13 1.18 1.18 1.01 1.00 1.06 1.03 0.92 0.75 0.62 0.60 0.53 0.46 0.48 0.58 0.66 0.68 0.71 0.66 0.56 0.62 0.83 0.98 1.03 1.04 0.99 0.89 0.81 0.76 0.75 0.73 0.71 0.62 0.54 0.48 0.44 0.43 0.41 0.40 0.38 0.36 0.32
1.25 1.29 1.47 1.41 1.24 1.21 1.21 1.16 1.20 1.13 0.97 0.88 0.78 0.68 0.71 0.77 0.80 0.87 0.94 1.00 0.83 0.72 0.77 0.89 0.97 1.01 1.03 1.03 0.99 0.94 0.92 0.81 0.74 0.65 0.61 0.59 0.56 0.57 0.54 0.49 0.47 0.44 0.40
1.64 1.60 1.59 1.57 1.49 1.51 1.67 1.66 1.51 1.45 1.40 1.25 1.13 1.04 0.98 1.01 0.96 0.97 0.95 1.05 1.13 0.94 0.77 0.74 0.76 0.82 0.95 1.09 1.17 1.18 1.09 0.98 0.89 0.80 0.73 0.69 0.67 0.62 0.58 0.56 0.54 0.53 0.50
2.07 2.13 2.12 2.15 2.02 2.05 2.01 1.86 1.85 1.72 1.69 1.52 1.25 1.16 1.08 1.08 0.99 0.88 0.86 0.92 1.01 0.97 0.86 0.71 0.69 0.76 0.88 1.02 1.11 1.14 1.09 0.99 0.93 0.89 0.85 0.79 0.73 0.66 0.60 0.57 0.58 0.61 0.62
2.77 2.80 2.75 2.73 2.62 2.46 2.31 2.22 2.15 1.92 1.74 1.52 1.23 1.09 1.00 0.90 0.86 0.84 0.76 0.76 0.77 0.74 0.75 0.72 0.67 0.65 0.72 0.80 0.86 0.95 0.94 0.91 0.89 0.89 0.81 0.78 0.76 0.70 0.65 0.62 0.64 0.69 0.71
3.36 3.18 3.06 3.04 2.87 2.64 2.43 2.32 2.17 2.03 1.77 1.55 1.47 1.26 0.99 0.82 0.76 0.68 0.62 0.60 0.59 0.59 0.65 0.65 0.61 0.57 0.56 0.60 0.60 0.66 0.71 0.72 0.75 0.79 0.79 0.83 0.80 0.74 0.72 0.71 0.72 0.76 0.76
3.79 3.56 3.48 3.31 3.05 2.85 2.61 2.37 2.17 2.11 1.91 1.70 1.64 1.57 1.27 0.96 0.71 0.54 0.49 0.45 0.44 0.43 0.44 0.43 0.42 0.43 0.43 0.44 0.48 0.53 0.55 0.62 0.69 0.76 0.80 0.80 0.80 0.78 0.78 0.78 0.78 0.79 0.81
4.20 3.96 3.83 3.54 3.25 2.94 2.66 2.39 2.16 2.02 1.91 1.76 1.61 1.64 1.46 1.16 0.82 0.60 0.45 0.38 0.34 0.36 0.37 0.35 0.35 0.36 0.36 0.38 0.41 0.46 0.48 0.51 0.57 0.63 0.68 0.73 0.77 0.79 0.79 0.82 0.85 0.90 0.95
3.62 3.50 3.37 3.17 2.94 2.63 2.39 2.17 1.94 1.81 1.83 1.68 1.50 1.34 1.24 1.06 0.88 0.70 0.50 0.40 0.35 0.36 0.34 0.33 0.33 0.33 0.33 0.33 0.40 0.42 0.41 0.42 0.45 0.47 0.50 0.52 0.56 0.59 0.61 0.64 0.69 0.78 0.87
3.03 2.80 2.65 2.51 2.33 2.14 1.96 1.83 1.74 1.61 1.54 1.43 1.28 1.15 1.09 0.97 0.79 0.67 0.58 0.46 0.42 0.40 0.37 0.34 0.33 0.34 0.34 0.33 0.34 0.39 0.40 0.36 0.38 0.38 0.37 0.36 0.38 0.43 0.48 0.51 0.56 0.63 0.71
2.44 2.08 1.87 1.71 1.59 1.47 1.43 1.42 1.36 1.31 1.25 1.20 1.11 1.00 0.93 0.91 0.82 0.72 0.62 0.54 0.51 0.48 0.41 0.36 0.34 0.33 0.31 0.29 0.30 0.37 0.29 0.27 0.28 0.28 0.27 0.26 0.26 0.29 0.34 0.41 0.48 0.56 0.62
1.95 1.61 1.41 1.30 1.24 1.17 1.08 1.08 1.05 1.03 1.01 1.01 0.98 0.90 0.84 0.78 0.74 0.70 0.68 0.64 0.56 0.48 0.41 0.37 0.31 0.27 0.25 0.23 0.26 0.32 0.24 0.23 0.22 0.20 0.20 0.20 0.20 0.21 0.22 0.25 0.31 0.38 0.46
1.51 1.32 1.18 1.08 0.94 0.81 0.77 0.77 0.78 0.78 0.79 0.85 0.85 0.83 0.82 0.79 0.74 0.67 0.64 0.64 0.65 0.59 0.50 0.42 0.35 0.30 0.26 0.23 0.26 0.28 0.22 0.24 0.21 0.21 0.20 0.20 0.18 0.18 0.18 0.20 0.23 0.25 0.29
1.05 0.93 0.82 0.74 0.69 0.62 0.58 0.57 0.59 0.62 0.65 0.71 0.75 0.78 0.82 0.84 0.83 0.75 0.68 0.63 0.66 0.67 0.61 0.49 0.40 0.32 0.26 0.23 0.25 0.20 0.20 0.23 0.19 0.17 0.16 0.14 0.13 0.12 0.12 0.13 0.15 0.15 0.16
0.81 0.69 0.58 0.51 0.50 0.50 0.49 0.45 0.45 0.48 0.51 0.56 0.60 0.65 0.70 0.75 0.78 0.78 0.77 0.73 0.66 0.63 0.61 0.49 0.39 0.32 0.27 0.22 0.21 0.18 0.18 0.17 0.14 0.11 0.09 0.09 0.09 0.09 0.10 0.10 0.12 0.14 0.15
0.75 0.65 0.57 0.53 0.49 0.45 0.42 0.41 0.40 0.43 0.48 0.49 0.47 0.50 0.55 0.55 0.58 0.59 0.58 0.56 0.53 0.51 0.51 0.41 0.32 0.29 0.30 0.28 0.25 0.23 0.21 0.20 0.16 0.11 0.10 0.10 0.10 0.10 0.10 0.12 0.14 0.15 0.16
0.57 0.53 0.47 0.46 0.45 0.41 0.39 0.37 0.35 0.33 0.32 0.34 0.34 0.36 0.37 0.37 0.39 0.39 0.39 0.38 0.37 0.35 0.36 0.35 0.31 0.27 0.27 0.26 0.25 0.24 0.14 0.10 0.13 0.10 0.09 0.10 0.12 0.13 0.14 0.15 0.15 0.14 0.12
0.49 0.47 0.42 0.39 0.38 0.36 0.31 0.29 0.28 0.24 0.21 0.21 0.21 0.22 0.24 0.25 0.26 0.25 0.26 0.25 0.26 0.25 0.30 0.34 0.31 0.27 0.22 0.20 0.22 0.18 0.16 0.22 0.13 0.09 0.09 0.09 0.11 0.11 0.10 0.08 0.08 0.08 0.06
0.42 0.43 0.40 0.35 0.28 0.24 0.21 0.21 0.23 0.19 0.17 0.16 0.15 0.15 0.16 0.17 0.18 0.18 0.17 0.18 0.21 0.26 0.29 0.31 0.27 0.22 0.20 0.17 0.24 0.24 0.20 0.21 0.18 0.11 0.11 0.09 0.09 0.06 0.05 0.04 0.04 0.05 0.05
0.35 0.33 0.29 0.27 0.23 0.19 0.17 0.17 0.19 0.16 0.14 0.13 0.12 0.11 0.11 0.13 0.14 0.13 0.14 0.17 0.23 0.28 0.28 0.29 0.25 0.21 0.19 0.23 0.26 0.26 0.26 0.21 0.17 0.12 0.15 0.13 0.14 0.17 0.17 0.12 0.08 0.06 0.04
0.26 0.24 0.22 0.21 0.19 0.16 0.15 0.14 0.13 0.14 0.14 0.14 0.12 0.11 0.11 0.09 0.08 0.08 0.10 0.14 0.21 0.25 0.26 0.28 0.27 0.28 0.26 0.29 0.34 0.33 0.34 0.35 0.30 0.21 0.23 0.19 0.16 0.24 0.26 0.22 0.14 0.08 0.06
0.24 0.19 0.16 0.15 0.17 0.16 0.12 0.09 0.09 0.11 0.13 0.15 0.16 0.14 0.09 0.06 0.08 0.11 0.10 0.09 0.11 0.12 0.19 0.28 0.33 0.33 0.33 0.36 0.44 0.43 0.44 0.45 0.42 0.32 0.36 0.34 0.25 0.28 0.21 0.14 0.13 0.11 0.08
0.23 0.20 0.16 0.14 0.14 0.12 0.08 0.06 0.06 0.09 0.12 0.13 0.13 0.13 0.13 0.11 0.09 0.08 0.07 0.08 0.12 0.15 0.17 0.21 0.31 0.32 0.28 0.31 0.41 0.46 0.45 0.45 0.45 0.43 0.46 0.48 0.34 0.29 0.20 0.28 0.25 0.17 0.12
0.21 0.16 0.14 0.13 0.14 0.12 0.06 0.04 0.05 0.08 0.10 0.09 0.07 0.08 0.09 0.11 0.09 0.08 0.08 0.12 0.16 0.19 0.14 0.18 0.24 0.29 0.34 0.40 0.43 0.46 0.54 0.60 0.58 0.52 0.53 0.55 0.47 0.37 0.30 0.36 0.33 0.23 0.21
0.20 0.14 0.13 0.14 0.13 0.13 0.06 0.03 0.04 0.06 0.09 0.08 0.09 0.10 0.10 0.08 0.07 0.07 0.08 0.15 0.22 0.21 0.22 0.28 0.44 0.61 0.68 0.66 0.55 0.54 0.63 0.67 0.67 0.72 0.64 0.63 0.59 0.48 0.45 0.38 0.38 0.40 0.43